TimeCDT,TemperatureF,Dew PointF,Humidity,Sea Level PressureIn,VisibilityMPH,Wind Direction,Wind SpeedMPH,Gust SpeedMPH,PrecipitationIn,Events,Conditions,WindDirDegrees,DateUTC
12:53 AM,42.1,41.0,96,29.67,10.0,West,8.1,-,N/A,,Clear,260,2012-10-20 05:53:00
1:53 AM,41.0,39.0,93,29.67,10.0,West,5.8,-,N/A,,Clear,260,2012-10-20 06:53:00
2:53 AM,41.0,39.9,96,29.69,10.0,West,8.1,-,N/A,,Partly Cloudy,260,2012-10-20 07:53:00
3:53 AM,39.0,37.9,96,29.70,10.0,West,4.6,-,N/A,,Clear,280,2012-10-20 08:53:00
4:53 AM,39.0,37.9,96,29.72,8.0,West,3.5,-,N/A,,Clear,260,2012-10-20 09:53:00
5:53 AM,37.9,37.0,97,29.73,6.0,SW,6.9,-,N/A,,Clear,220,2012-10-20 10:53:00
6:53 AM,39.0,37.0,93,29.75,9.0,WSW,8.1,-,N/A,,Scattered Clouds,250,2012-10-20 11:53:00
7:53 AM,39.0,37.9,96,29.78,6.0,SW,8.1,-,N/A,,Clear,220,2012-10-20 12:53:00
8:51 AM,42.8,39.2,87,29.79,6.0,WSW,10.4,-,N/A,,Overcast,240,2012-10-20 13:51:00
8:53 AM,42.1,41.0,96,29.80,6.0,WSW,9.2,-,N/A,,Overcast,250,2012-10-20 13:53:00
9:53 AM,48.0,43.0,83,29.81,10.0,WSW,10.4,-,N/A,,Scattered Clouds,250,2012-10-20 14:53:00
10:53 AM,50.0,43.0,77,29.82,10.0,West,12.7,-,N/A,,Clear,260,2012-10-20 15:53:00
11:53 AM,53.1,43.0,69,29.83,10.0,WSW,11.5,-,N/A,,Partly Cloudy,250,2012-10-20 16:53:00
12:53 PM,54.0,42.1,64,29.83,10.0,West,12.7,-,N/A,,Scattered Clouds,260,2012-10-20 17:53:00
1:53 PM,55.9,41.0,57,29.84,10.0,WNW,11.5,-,N/A,,Scattered Clouds,290,2012-10-20 18:53:00
2:53 PM,57.0,41.0,55,29.84,10.0,West,8.1,-,N/A,,Scattered Clouds,260,2012-10-20 19:53:00
3:53 PM,55.9,37.0,49,29.84,10.0,WSW,11.5,-,N/A,,Clear,240,2012-10-20 20:53:00
4:53 PM,54.0,39.0,57,29.87,10.0,West,8.1,-,N/A,,Clear,260,2012-10-20 21:53:00
5:53 PM,52.0,39.0,61,29.88,10.0,WSW,5.8,-,N/A,,Partly Cloudy,250,2012-10-20 22:53:00
6:53 PM,48.0,39.0,71,29.90,10.0,SW,3.5,-,N/A,,Partly Cloudy,220,2012-10-20 23:53:00
7:53 PM,45.0,37.9,76,29.91,10.0,SW,3.5,-,N/A,,Clear,220,2012-10-21 00:53:00
8:53 PM,43.0,37.9,82,29.94,10.0,SW,4.6,-,N/A,,Clear,230,2012-10-21 01:53:00
9:53 PM,43.0,39.0,86,29.95,10.0,Calm,Calm,-,N/A,,Clear,0,2012-10-21 02:53:00
10:53 PM,42.1,39.0,89,29.95,10.0,Calm,Calm,-,N/A,,Clear,0,2012-10-21 03:53:00
11:53 PM,41.0,37.9,89,29.97,10.0,Calm,Calm,-,N/A,,Clear,0,2012-10-21 04:53:00